User: anonymous   Login
Location: Zlin
(49.2330°N, 17.6670°E)
Time: 01:09:59
(UTC+02:00)
Language:

ISS - Orbit

View from above orbital plane
View from above orbital plane
View from above satellite
View from above satellite

Ground track
Ground track

The orbit data is extracted from the following two-line orbital elements,

1 25544U 98067A   16122.76164352  .00005057  00000-0  82779-4 0  9990
2 25544  51.6440 289.6210 0001868  82.5256 104.2567 15.54396062997754
Epoch (UTC): 01 May 2016 18:16:46
Eccentricity: 0.0001868
inclination: 51.6440°
perigee height: 402 km
apogee height: 405 km
right ascension of ascending node: 289.6210°
argument of perigee: 82.5256°
revolutions per day: 15.54396062
mean anomaly at epoch: 104.2567°
orbit number at epoch: 99775

The dashed part of the orbit path shows where the satellite is in the earth's shadow,  

DLR